Location: New Town
(33.2710°N, 90.7534°W)
Time: 01:28:14
(UTC+00:00)

N. Korean satellite - Visible Passes

Search period start: 20 April 2021 00:00
Search period end: 30 April 2021 00:00
Orbit: 452 x 499 km, 97.2° (Epoch: 19 April)

Date Brightness Start Highest point End Pass type
(mag) Time Alt. Az. Time Alt. Az. Time Alt. Az.
20 Apr 9.6 10:29:13 10° ENE 10:31:10 14° E 10:33:06 10° SE visible
23 Apr 9.4 10:40:45 10° NE 10:43:27 20° E 10:46:06 10° SE visible
27 Apr 9.7 10:26:50 10° ENE 10:28:27 13° E 10:30:03 10° ESE visible
